Voltar ao catálogo

THORAD AGENA D DEB

AtivoLEO
NORAD 4173·DEBRIS·🇺🇸 United States

Lançado Sep 30, 1969 de Vandenberg Space Force Base

Loading…

Próximas Passagens (próximas 24 horas)

TLE

AtualizadoSource: Space-Track

Época: Sep 14, 2026, 02:42 UTC

1 04173U 69082AR  26257.11309587  .00003962  00000-0  46957-3 0  9990
2 04173  70.0654 142.1189 0023220 253.2699 106.5906 14.85125422986688

Acompanhe THORAD AGENA D DEB em tempo real com AllMySat

Download on the App Store